Lapse_Rate
5.9 6.1 6.2 6.2 6.1 6.1 6.5 6.8 6.7 6.4 6.4 6.4 6.3 6.4 6.4 6.3 6.1 6.1 6.1 6.1 6.1 6.3 6.3 6.4 6.4 6.5 6.6 6.6 6.6 6.6 6.6 7.3 7.0 6.8 6.9 6.3 6.7 6.5 6.5 6.8 6.5 6.4 6.6 6.4 7.0
6.0 6.1 6.2 6.2 6.1 6.2 6.4 6.5 6.4 6.3 6.3 6.4 6.4 6.3 6.1 6.1 5.9 6.0 5.9 5.9 6.0 6.1 6.4 6.4 6.4 6.5 6.6 6.6 6.6 6.4 6.5 6.9 6.9 6.4 6.4 6.5 6.8 6.9 6.9 6.7 6.7 6.5 6.4 6.5 7.1
6.2 6.2 6.3 6.3 6.4 6.4 6.4 6.6 6.6 6.5 6.5 6.4 6.3 6.2 6.3 6.1 6.3 6.0 5.8 5.7 6.0 6.3 6.3 6.3 6.4 6.5 6.5 6.5 6.6 6.6 6.4 6.9 6.9 6.9 6.9 6.9 6.9 7.1 7.2 6.8 6.7 7.2 7.0 7.0 7.1
6.1 6.3 6.3 6.4 6.5 6.4 6.4 6.4 6.5 6.4 6.3 6.3 6.4 6.4 6.4 6.4 6.5 6.0 5.7 5.5 5.7 6.2 6.3 6.3 6.2 6.3 6.4 6.4 6.6 6.6 6.7 6.8 7.0 6.9 6.9 6.9 7.0 7.0 7.1 7.1 7.4 7.3 7.2 7.0 7.1
6.1 6.1 6.1 6.3 6.3 6.4 6.3 6.2 6.2 6.2 6.2 6.1 6.1 5.9 6.1 6.3 6.3 6.1 5.8 5.6 5.6 6.0 6.3 6.3 6.1 6.2 6.3 6.6 6.7 6.6 6.6 6.8 6.9 7.0 6.9 7.0 7.0 6.9 7.1 7.2 7.4 7.5 7.3 7.2 7.1
5.9 6.0 6.1 6.3 6.3 6.2 6.2 6.3 6.3 6.2 6.2 6.2 6.0 5.8 5.9 6.1 5.9 5.9 5.7 5.6 5.7 6.0 6.4 6.4 6.3 6.3 6.4 6.5 6.4 6.7 6.6 6.8 6.9 6.9 7.0 7.0 7.0 7.2 7.0 7.5 7.2 7.3 7.3 7.2 7.3
5.9 6.0 6.1 6.3 6.4 6.4 6.2 6.3 6.3 6.3 6.3 6.0 5.9 5.7 5.7 5.8 5.9 5.8 5.8 5.7 5.8 6.1 6.4 6.4 6.3 6.2 6.4 6.4 6.6 6.6 6.8 6.9 7.0 7.0 6.9 7.0 7.3 7.4 7.5 7.2 7.3 7.1 7.1 7.2 7.3
5.8 5.9 6.1 6.2 6.3 6.4 6.4 6.4 6.3 6.3 6.3 6.2 5.9 5.8 5.8 5.7 5.6 5.7 5.8 5.9 5.9 6.1 6.3 6.4 6.3 6.3 6.3 6.3 6.4 6.4 6.6 6.5 6.6 7.1 6.8 6.8 7.3 6.8 7.4 7.3 7.2 7.2 7.1 7.2 7.1
5.8 5.9 5.9 6.2 6.3 6.3 6.3 6.3 6.2 6.1 6.0 5.9 5.6 5.6 5.8 5.7 5.7 5.7 5.9 5.9 6.0 6.1 6.2 6.3 6.4 6.4 6.3 6.3 5.9 6.2 6.7 6.7 6.6 6.8 6.7 6.8 6.9 6.7 7.5 7.2 7.1 7.3 7.3 7.2 7.3
5.8 6.0 6.0 6.1 6.2 6.2 6.2 6.2 6.2 6.0 5.8 5.6 5.5 5.5 5.7 5.7 5.6 5.7 5.9 6.0 6.0 6.1 6.2 6.3 6.3 6.2 6.4 6.3 6.7 6.9 6.4 6.6 6.6 6.0 6.5 6.6 6.7 6.6 6.7 7.6 7.3 7.3 7.4 7.5 7.3
5.9 6.0 6.0 6.0 6.0 6.0 6.1 6.1 6.0 5.8 5.8 5.6 5.6 5.5 5.5 5.5 5.6 5.7 5.8 6.0 5.9 5.9 5.9 6.1 6.1 6.0 5.9 5.7 5.9 6.5 6.3 6.2 6.6 6.2 6.3 6.7 6.4 6.6 6.5 7.6 7.6 7.4 7.5 7.5 7.4
6.1 6.0 5.9 5.8 5.9 6.0 5.9 5.9 5.9 5.7 5.6 5.6 5.7 5.7 5.6 5.4 5.5 5.7 5.7 5.8 5.7 5.7 5.9 5.9 6.1 5.8 6.4 6.4 6.4 6.2 5.8 6.1 6.2 6.1 6.1 6.3 6.1 7.0 6.5 7.2 7.5 7.5 7.5 7.5 7.3
5.9 5.8 5.8 5.8 5.9 5.9 5.9 5.7 5.7 5.6 5.5 5.5 5.7 5.6 5.4 5.4 5.4 5.7 5.6 5.6 5.6 5.7 5.8 5.7 5.6 6.2 6.3 6.3 6.2 6.0 5.7 6.1 6.2 5.9 5.6 5.7 6.1 7.3 7.0 7.3 7.5 7.6 7.6 7.5 7.3
5.7 5.7 5.6 5.7 5.8 5.7 5.6 5.6 5.6 5.5 5.4 5.2 5.3 5.4 5.4 5.5 5.5 5.8 5.7 5.6 5.6 5.7 5.8 5.8 5.9 6.2 6.2 6.3 5.8 5.6 6.0 6.3 5.9 5.8 6.6 5.6 6.1 6.8 6.9 7.1 7.6 7.7 7.5 7.4 7.3
5.6 5.6 5.7 5.7 5.6 5.6 5.5 5.4 5.4 5.3 5.4 5.1 5.2 5.4 5.5 5.6 5.7 5.9 6.0 5.9 5.8 5.8 5.8 5.6 6.0 6.1 6.2 6.3 6.3 6.0 6.3 6.1 5.7 5.9 5.9 6.4 6.2 7.0 7.1 6.7 7.1 7.5 7.5 7.4 7.0
5.4 5.5 5.5 5.5 5.5 5.4 5.3 5.2 5.2 5.4 5.3 5.4 5.5 5.6 5.6 5.8 6.0 6.0 6.1 6.0 6.0 5.9 6.1 6.1 6.3 6.3 6.3 6.5 6.3 6.3 6.1 5.9 5.7 5.8 6.0 6.5 7.0 6.8 7.6 6.7 6.1 7.1 7.4 7.0 6.5
5.3 5.4 5.4 5.4 5.4 5.3 5.2 5.1 5.0 5.2 5.9 5.4 5.6 5.7 5.7 5.9 6.1 6.2 6.1 6.1 5.9 5.7 6.0 6.2 6.5 6.6 6.7 6.2 6.0 6.0 5.9 6.7 6.5 6.1 6.6 6.3 6.4 7.1 7.0 7.0 6.8 6.8 7.1 6.9 6.5
5.1 5.2 5.3 5.3 5.3 5.2 5.0 4.8 4.7 5.6 6.0 5.8 6.0 5.8 5.9 6.1 6.1 6.2 5.9 6.1 6.3 6.1 5.7 6.0 6.3 6.3 6.5 6.4 6.0 5.7 6.1 7.1 7.5 7.9 7.9 6.4 6.3 7.5 7.2 7.2 7.2 7.1 7.0 7.0 6.6
5.0 5.1 5.2 5.2 5.2 5.0 4.8 4.6 5.6 6.0 6.0 6.3 6.0 5.8 6.1 6.2 5.9 6.0 6.0 6.1 6.4 6.4 6.0 6.0 5.9 6.0 6.2 6.5 6.5 6.0 6.1 6.6 7.0 7.1 6.5 7.2 7.7 7.9 7.3 7.3 7.3 7.4 6.9 6.7 6.6
4.9 5.0 5.1 5.1 5.0 4.9 4.7 5.2 5.7 5.9 6.1 6.3 6.4 6.2 6.3 6.5 6.1 6.2 6.1 6.2 6.4 6.6 6.4 5.7 5.8 5.7 6.1 6.3 6.5 6.7 6.3 6.8 7.1 7.4 7.7 8.1 8.3 8.5 8.0 7.5 7.4 7.4 7.2 7.0 6.9
4.9 4.9 4.9 4.9 4.7 4.6 4.8 5.4 5.8 5.9 6.1 6.1 6.2 6.4 6.5 6.6 6.5 6.5 6.3 6.3 6.2 6.3 6.2 6.1 5.8 6.0 6.0 6.2 6.7 6.4 6.5 6.8 7.3 7.6 8.3 8.2 8.1 8.3 8.2 7.7 7.7 7.6 7.3 7.1 7.0
4.8 4.8 5.0 4.9 4.8 5.1 5.5 5.7 5.9 6.2 6.3 6.1 6.1 6.3 6.5 6.8 6.7 6.4 6.2 6.3 6.1 6.1 6.2 6.4 6.2 5.7 6.4 6.2 6.5 6.7 6.9 7.2 7.7 7.7 8.1 8.1 7.5 8.1 8.0 8.0 7.8 7.7 7.6 7.5 7.6
4.4 4.7 4.8 4.7 4.9 5.8 6.0 6.1 5.8 6.3 6.5 6.4 6.4 6.5 6.5 6.4 6.3 6.2 6.0 6.1 6.1 6.2 6.3 6.5 5.8 6.1 6.3 6.3 6.8 6.5 7.1 7.0 6.8 6.9 6.9 7.6 7.6 8.1 8.2 8.0 7.9 7.8 7.7 7.8 7.6
5.1 4.7 4.8 5.2 5.8 5.9 5.9 5.7 6.0 6.7 6.6 6.4 6.2 6.4 6.4 6.3 6.3 6.0 5.9 5.9 6.1 6.4 6.7 6.5 6.0 6.3 6.3 6.8 6.9 6.3 6.7 6.7 6.6 6.5 7.2 7.2 7.2 7.7 7.8 7.8 7.9 7.8 7.3 7.1 7.0
5.4 5.3 5.7 6.0 6.3 6.1 5.9 5.8 6.5 6.4 6.4 6.5 6.4 6.5 6.4 6.1 6.0 5.9 6.0 6.1 6.1 6.4 6.4 6.0 5.8 6.0 6.2 6.2 6.4 6.4 6.2 6.8 6.3 6.1 6.7 7.0 7.3 7.1 7.6 7.7 7.9 7.6 7.3 6.8 6.6
5.5 5.7 6.2 6.4 6.4 5.8 5.7 6.2 6.5 6.7 6.5 6.5 6.5 6.4 6.2 6.2 6.1 6.0 6.2 6.2 6.1 6.2 6.1 6.0 5.9 5.9 6.0 6.1 5.9 5.9 6.5 6.5 6.5 6.8 6.6 6.9 6.8 7.6 7.6 7.1 7.0 7.3 6.9 6.4 6.2
6.1 6.4 6.4 6.6 6.4 6.2 6.8 6.9 6.7 6.5 6.3 6.4 6.3 6.3 6.2 6.1 6.0 6.0 5.9 5.9 6.1 5.9 6.0 5.8 5.7 5.7 5.5 6.1 6.1 5.7 7.0 6.7 6.7 6.8 7.1 6.7 7.5 7.0 7.2 6.9 6.7 6.4 6.3 6.4 6.3
Wind_Speed
6 6 7 8 9 10 9 10 10 11 12 12 12 12 12 14 13 3 7 9 8 11 11 5 2 1 1 2 1 2 4 3 3 4 5 2 6 8 8 12 10 5 10 11 12
6 7 8 9 8 9 10 10 10 10 10 10 9 9 8 10 1 10 7 9 8 8 3 2 0 2 3 2 0 4 3 4 4 5 7 7 7 10 9 11 12 10 13 13 13
5 6 7 8 9 10 11 11 12 11 9 8 6 6 6 7 3 5 11 10 8 8 3 3 2 3 1 2 1 0 3 3 2 4 7 9 9 4 8 9 10 13 16 15 14
4 5 7 8 9 10 11 11 10 9 10 8 7 5 6 2 1 4 10 11 10 6 2 1 3 2 1 2 0 6 2 4 3 2 5 10 11 11 11 8 8 9 12 12 12
4 5 7 8 9 10 10 9 8 8 8 7 5 6 5 4 4 4 8 7 5 3 3 1 3 2 2 1 4 7 3 4 6 7 10 12 14 13 12 3 9 7 7 9 10
4 5 6 7 9 10 8 7 6 6 8 4 3 5 4 3 3 4 5 3 5 2 2 2 1 3 1 2 5 2 8 10 7 8 8 9 12 3 2 7 9 7 7 8 8
5 5 7 8 10 10 8 6 4 5 4 2 0 3 2 6 1 3 4 3 5 2 2 3 2 4 1 2 2 5 8 8 9 5 4 6 12 10 3 7 8 7 9 8 8
5 6 6 9 11 9 8 7 5 4 3 3 3 3 3 1 2 3 1 4 3 4 5 3 3 1 3 2 3 5 5 6 8 4 4 3 14 7 3 7 9 8 8 9 9
4 6 9 9 10 10 8 3 1 1 1 3 4 4 4 2 2 3 3 2 1 3 4 2 1 1 3 5 6 6 8 7 5 4 3 8 11 5 1 7 9 8 8 8 9
3 5 8 11 10 9 6 2 3 3 2 1 0 2 3 3 2 2 3 1 0 2 3 2 2 6 5 7 5 9 7 6 9 4 7 13 18 16 4 7 8 6 7 7 9
3 5 7 9 9 7 2 3 3 3 5 5 4 3 4 3 1 2 1 2 1 4 4 1 5 8 7 7 9 9 10 14 13 7 7 15 17 15 10 7 7 5 5 5 7
2 4 6 9 5 4 3 2 2 3 4 3 2 3 2 1 2 2 2 3 3 6 2 4 9 3 2 4 6 9 12 14 12 7 6 14 18 17 14 11 6 5 2 4 6
3 4 7 9 1 0 2 3 1 2 1 3 2 2 2 2 0 4 2 0 4 5 7 10 3 3 2 5 7 10 13 14 15 12 14 15 17 20 13 5 6 4 1 2 5
4 3 7 7 3 2 2 2 1 2 3 4 3 2 2 1 3 2 2 2 3 5 4 8 3 6 8 11 9 11 5 10 11 8 6 1 9 14 9 10 10 6 4 2 4
5 1 3 4 5 2 4 3 1 2 4 4 4 2 1 2 3 3 2 2 5 3 3 2 3 5 6 6 5 3 3 4 8 11 13 13 7 6 3 12 12 9 5 3 4
5 1 1 2 2 3 5 3 2 2 5 4 2 4 5 2 3 3 2 2 1 4 7 13 1 4 9 3 7 2 4 6 5 6 7 15 13 9 6 3 8 9 7 5 4
6 3 1 1 2 5 5 3 2 3 1 4 4 5 5 4 4 4 5 6 4 2 4 3 10 3 5 7 3 5 6 3 4 4 6 6 7 14 6 4 4 10 9 6 4
8 5 4 4 3 5 3 2 4 2 2 1 3 5 4 6 3 4 3 5 8 4 4 4 4 5 6 9 6 7 8 5 6 9 12 4 6 3 5 3 2 9 9 7 5
12 3 3 2 2 2 3 2 4 3 6 10 5 4 5 4 2 5 6 3 2 8 5 3 3 3 2 2 2 2 6 6 11 10 6 10 18 4 4 3 5 7 9 9 7
5 5 3 2 2 3 2 4 3 3 6 6 6 4 5 6 7 7 7 2 3 2 0 2 5 2 2 2 6 6 5 4 4 6 15 14 17 12 6 8 9 11 11 10 7
4 4 2 1 3 2 3 4 3 3 3 6 4 4 2 6 7 5 2 3 2 4 4 1 1 2 1 7 8 5 4 7 8 8 13 16 13 3 1 7 12 13 12 11 8
4 3 2 1 3 1 3 4 2 5 2 2 1 3 5 6 5 5 5 0 3 6 4 2 2 5 11 3 3 4 8 12 10 17 14 13 16 5 2 5 9 12 11 10 8
5 3 2 2 5 4 1 3 3 5 5 4 4 2 2 4 3 3 3 2 4 5 4 4 3 5 3 3 4 6 9 12 8 4 18 15 16 6 3 4 7 9 9 8 9
4 4 2 3 1 3 6 5 6 1 4 3 4 4 3 2 1 3 6 3 3 4 3 2 4 7 12 17 9 8 10 11 9 8 15 17 22 15 9 6 6 7 10 11 11
3 3 2 6 8 5 5 8 7 7 3 6 3 7 6 4 2 4 4 4 3 3 4 3 5 6 12 18 16 18 19 20 17 17 13 24 19 17 9 5 5 7 9 10 10
5 4 2 2 7 14 9 9 11 5 9 6 5 11 9 5 6 7 7 4 4 4 6 4 4 1 6 12 11 17 21 21 23 23 22 25 29 19 19 15 10 7 4 7 3
3 1 2 7 7 10 8 8 11 11 6 2 8 6 10 8 4 4 3 3 4 7 10 6 3 1 8 4 8 11 14 18 19 18 13 18 25 16 13 12 4 4 5 7 5
Wind_Direction
39 36 20 19 15 13 9 0 2 2 359 352 350 348 346 340 314 229 51 349 329 328 310 299 277 336 239 77 340 276 247 271 329 305 13 61 330 316 329 281 300 302 300 320 326
40 22 19 16 15 4 3 1 7 6 359 1 355 348 340 335 342 61 1 346 347 332 293 296 179 273 134 110 230 269 264 32 4 333 309 315 312 312 305 310 297 323 323 325 330
45 26 15 13 7 1 3 5 360 0 360 0 355 342 330 322 186 40 356 337 335 322 355 314 274 269 176 235 136 239 293 38 297 331 316 302 293 327 293 295 351 324 319 324 315
28 25 16 8 3 2 4 2 355 353 343 342 338 323 310 223 119 27 344 333 321 320 283 330 266 229 247 217 295 262 297 295 314 352 300 289 306 287 280 289 342 326 341 335 342
31 10 11 3 358 2 2 358 359 342 340 341 328 318 269 142 90 14 341 345 310 328 30 40 282 299 236 223 236 249 264 274 274 278 278 286 276 272 274 321 314 328 333 350 342
7 7 0 354 356 354 356 355 351 342 338 336 308 296 257 158 355 5 354 326 9 330 63 3 344 318 216 257 259 360 288 276 276 274 271 275 281 292 168 332 293 313 321 335 342
351 349 352 350 352 347 338 340 333 348 23 61 63 291 32 78 359 35 71 29 360 360 96 52 1 271 325 252 312 287 287 273 245 242 268 287 263 231 355 314 291 303 314 325 330
335 338 348 347 345 340 332 332 313 347 85 102 304 264 77 42 29 67 89 77 49 40 81 31 7 53 310 330 244 263 258 264 133 228 176 245 280 144 325 314 303 313 318 321 326
343 340 337 344 341 332 329 317 284 346 122 296 255 286 118 155 157 42 22 87 86 54 59 64 21 299 213 243 254 208 274 232 263 185 287 226 284 137 223 304 300 314 324 327 332
319 338 339 336 338 334 329 279 129 191 224 279 312 202 173 113 61 45 68 76 268 151 161 193 206 243 226 227 262 305 248 251 265 149 251 267 267 272 254 291 290 307 321 334 341
297 326 334 336 339 340 206 169 183 148 56 42 42 72 101 83 206 90 33 152 199 242 243 150 237 233 264 246 311 292 283 278 280 287 295 269 276 282 268 253 262 285 319 342 356
244 305 332 334 345 337 263 254 31 17 111 58 68 97 73 350 162 129 246 235 229 246 211 216 246 5 341 282 264 263 269 271 284 288 267 282 280 277 261 236 260 274 296 356 2
245 301 333 335 237 202 80 89 329 291 231 98 83 136 97 263 244 144 252 39 265 241 236 263 20 69 230 245 259 257 267 279 282 300 270 273 281 260 236 195 209 215 207 35 27
237 295 337 341 214 137 103 127 252 310 227 150 168 100 177 203 176 57 21 313 224 280 268 268 52 253 265 266 270 285 313 269 277 288 279 142 289 290 203 205 211 197 193 109 51
249 249 17 1 115 170 101 162 179 249 277 99 129 41 146 231 117 113 35 194 266 250 245 66 214 225 248 255 227 287 349 284 278 278 290 266 249 276 225 217 206 196 175 135 70
194 151 190 171 108 95 142 155 226 66 244 141 128 159 170 169 127 127 173 194 348 269 244 268 101 263 245 305 250 3 283 265 268 276 259 258 235 278 293 283 210 173 182 155 104
181 102 297 34 112 152 162 197 64 204 39 172 171 182 204 157 166 200 196 198 223 245 228 220 219 213 249 253 191 228 264 283 242 220 256 23 289 250 315 12 311 179 175 156 139
152 142 67 62 130 161 212 141 210 80 185 136 140 155 191 161 181 184 214 248 210 235 289 279 239 203 159 242 330 217 219 260 286 291 311 107 251 293 21 350 246 161 159 154 155
147 134 144 59 153 210 216 165 218 168 148 159 128 173 191 194 249 199 223 264 358 208 234 274 232 113 30 334 275 105 223 281 283 265 272 264 274 200 93 120 157 169 182 177 166
168 169 133 344 229 225 92 244 176 127 142 175 194 199 180 178 188 201 200 115 176 253 221 62 283 70 72 248 225 242 9 252 206 270 273 275 278 271 186 202 204 198 202 187 179
171 174 85 301 258 184 207 222 181 171 184 195 193 137 180 171 202 202 178 128 191 152 212 229 247 169 181 208 269 200 233 224 279 263 276 280 271 44 276 219 210 214 209 198 191
174 169 65 257 151 159 201 188 127 163 186 148 141 118 174 165 178 221 220 289 183 174 180 159 248 264 274 60 309 282 276 266 248 264 251 260 270 155 199 279 233 217 213 204 199
148 109 81 294 188 202 147 156 191 156 187 175 161 103 91 155 205 203 200 144 191 199 173 186 200 289 253 232 218 246 243 241 271 287 262 265 274 105 285 275 257 240 216 199 214
149 134 131 226 292 202 158 181 173 140 152 143 119 108 127 128 85 190 210 160 196 228 82 156 214 240 264 284 328 275 264 254 232 261 268 259 273 277 240 241 246 242 231 217 220
185 165 176 181 221 197 200 157 151 167 190 172 148 205 161 146 166 216 183 168 195 183 178 230 243 229 258 274 286 278 273 266 253 246 254 269 273 268 284 264 240 250 246 225 225
149 158 149 114 152 179 192 201 175 160 160 190 203 190 181 173 194 186 154 193 192 171 187 190 259 316 278 271 274 275 268 268 259 255 258 260 266 270 278 273 241 228 256 259 250
123 83 170 158 154 174 207 179 194 145 211 116 192 144 197 219 111 68 94 109 153 172 189 179 217 192 271 21 308 274 267 260 256 251 251 259 262 297 286 281 300 259 241 246 235